Regional Weather Roundup
Issued by NWS

Home | Current Version | Previous Version | Graphics & Text | Print | Product List | Glossary Off
Versions: 1 2 3 4 5 6 7 8 9 10 11 12 13 14 15 16 17 18 19 20 21 22 23 24 25 26 27 28 29 30 31 32 33 34 35 36 37 38 39 40 41 42 43 44 45 46 47 48 49 50

000
ASUS43 KMKX 041000
RWRWI

WISCONSIN REGIONAL WEATHER ROUNDUP
NATIONAL WEATHER SERVICE MILWAUKEE/SULLIVAN WI
500 AM CDT WED MAY 04 2016

NOTE: "FAIR" INDICATES FEW OR NO CLOUDS BELOW 12,000 FEET WITH NO
SIGNIFICANT WEATHER AND/OR OBSTRUCTIONS TO VISIBILITY.

WIZ001-002-006>008-014>016-023>028-041100-
NORTHWEST WISCONSIN

CITY           SKY/WX    TMP DP  RH WIND       PRES   REMARKS
SUPERIOR ARPT  CLEAR     44  32  64 N8        29.92R
ASHLAND        CLEAR     40  33  76 N9        29.89R WCI  34
HAYWARD        CLEAR     31  28  89 CALM      29.89R
SIREN          CLEAR     36  31  85 CALM      29.91S
CUMBERLAND     CLEAR     37  32  81 NW8       29.89S WCI  31
RICE LAKE      CLEAR     40  32  72 W3        29.90R
CHETEK         CLEAR     43  35  72 N5        29.88S
LADYSMITH      CLEAR     40  34  80 NW8       29.87S WCI  34
EAU CLAIRE     NOT AVBL
MENOMONIE      CLEAR     42  33  68 NW6       29.89R
NEW RICHMOND   CLEAR     42  32  69 NW7       29.91S
OSCEOLA        CLEAR     44  33  66 NW3       29.95R
$$

WIZ003>005-009-010-017-018-041100-
NORTH CENTRAL WISCONSIN

CITY           SKY/WX    TMP DP  RH WIND       PRES   REMARKS
MANITOWISH WTR CLOUDY    41  35  81 N5        29.81S
ARBOR VITAE    CLOUDY    42  36  80 N10G18    29.80S
WOODRUFF       CLOUDY    42  36  80 N10G18    29.80S
RHINELANDER    CLOUDY    41  34  76 N8        29.80R
EAGLE RIVER    CLOUDY    38  33  81 N12G17    29.79S WCI  31
LAND O LAKES   DRIZZLE   38  35  89 N9G21     29.81S WCI  32
PHILLIPS       CLOUDY    40  34  79 NW6       29.82S
TOMAHAWK       MOCLDY    37  35  91 NW6       29.80S WCI  32
MEDFORD        CLEAR     37  36  96 NW7       29.81S WCI  31
MERRILL        CLEAR     37  36  99 CALM      29.80S
$$

WIZ029-030-035-036-043>047-041100-
CENTRAL WISCONSIN

CITY           SKY/WX    TMP DP  RH WIND       PRES   REMARKS
WAUSAU         PTCLDY    41  36  82 NW7       29.78R
MOSINEE        CLEAR     37  36  93 NW7       29.80S WCI  32
MARSHFIELD     PTCLDY    39  35  86 NW9       29.80S WCI  33
STEVENS POINT  CLEAR     38  35  89 NW6       29.80R WCI  33
WAUPACA        PTCLDY    43  37  80 N7        29.77R
WAUTOMA        CLOUDY    43  39  86 N9        29.78R
WISC RAPIDS    CLEAR     42  35  76 N9        29.81R
CAMP DOUGLAS   NOT AVBL
$$

WIZ011>013-019>022-031-037>040-048>050-041100-
NORTHEAST WISCONSIN

CITY           SKY/WX    TMP DP  RH WIND       PRES   REMARKS
ANTIGO         CLOUDY    38  36  91 N10       29.76S WCI  31
SHAWANO        PTCLDY    41  36  81 NW6       29.76R
OCONTO         CLOUDY    41  38  89 N8        29.73S
STURGEON BAY   PTCLDY    39  34  81 N15       29.73S WCI  31
GREEN BAY      LGT RAIN  42  36  79 N13       29.74R
MANITOWOC      PTCLDY    43  37  81 N16G25    29.71R
APPLETON       CLEAR     41  34  75 N15G25    29.72R
CLINTONVILLE   CLEAR     41  36  81 N7        29.76S
OSHKOSH        CLEAR     43  37  79 N16       29.73R
$$

WIZ032>034-041-042-053>061-041100-
SOUTHWEST WISCONSIN

CITY           SKY/WX    TMP DP  RH WIND       PRES   REMARKS
LA CROSSE      PTCLDY    47  38  71 N12       29.84R
SPARTA         MOCLDY    44  41  88 N6        29.83R
VIROQUA        CLOUDY    44  41  89 N15G24    29.81R
BOSCOBEL       MOCLDY    47  45  93 N9        29.80R
PRAIRIE DU CHI CLEAR     48  46  93 N13G22    29.79R
PLATTEVILLE    CLEAR     44  44  99 N9        29.75R
$$

WIZ056-057-062-063-064-067-068-041100-
SOUTH CENTRAL WISCONSIN

CITY           SKY/WX    TMP DP  RH WIND       PRES   REMARKS
REEDSBURG      MOCLDY    45  42  89 N13G21    29.77R
BARABOO/DELLS  CLOUDY    44  41  89 N7        29.77R
LONE ROCK      NOT AVBL
MINERAL POINT  CLEAR     45  45 100 N10       29.75R
MADISON        MOCLDY    45  43  93 N14       29.74R
MIDDLETON      CLEAR     46  43  90 N13       29.75R
WATERTOWN      MOCLDY    44  44 100 N7        29.71R
MONROE         CLEAR     45  43  93 N12       29.72R
JANESVILLE     CLEAR     45  45 100 N8        29.70R
$$

WIZ051-052-058>065-066-070>072-041100-
SOUTHEAST WISCONSIN

CITY           SKY/WX    TMP DP  RH WIND       PRES   REMARKS
MILWAUKEE      CLOUDY    44  39  82 N13       29.69R
WAUKESHA       MOCLDY    43  41  93 N9        29.70R
MILWAUKEE/TIMM CLOUDY    46  37  71 N12       29.69R
RACINE         CLOUDY    44  39  82 N15G22    29.69R
BURLINGTON     PTCLDY    46  44  94 N12       29.68R
KENOSHA        MOCLDY    45  39  79 N14G23    29.68R
FOND DU LAC    CLOUDY    45  40  82 N13       29.73R
SHEBOYGAN      CLOUDY    45  39  79 N13       29.70R
WEST BEND      MOCLDY    43  41  93 N9        29.70R
JUNEAU         MOCLDY    44  42  93 N13       29.72S
$$

LSZ147-162-041100-
LAKE SUPERIOR

STATION/POSITION TIME  TEMP    WIND        PRES    WAVE
                       AIR SEA DIR/SP/G            HT/PER
                 (UTC) (F)     (DEG/KT/KT) (MB)    (FT/S)
W MID LAKE BUOY  0850   39 37  360/  6/  8 1011.6R   1/ 4
DEVILS ISLAND    0900   44      10/ 13/ 15 1012.3R
SAXON HARBOR     0900   38      CALM  /  3 1011.2
$$

LMZ867-665-643>646-041100-
LAKE MICHIGAN

STATION/POSITION TIME  TEMP    WIND        PRES    WAVE
                       AIR SEA DIR/SP/G            HT/PER
                 (UTC) (F)     (DEG/KT/KT) (MB)    (FT/S)
CHAMBERS ISLAND  0900   42     320/ 14/ 17 1006.4R
N MID LAKE BUOY  0850   40 38  320/ 17/ 19 1004.3S   3/ 4
NORTHPORT PIER   0926   41     330/ 19/ 25 1005.8S
ALGOMA LAKESHORE 0915          330/ 14/ 18   N/A
KEWAUNEE LAKESHO 0900   42     340/ 14/ 18 1005.0R
SHEBOYGAN LAKESH 0900   45     360/ 16/ 20 1005.4R
PORT WASHINGTON  0900   48     360/  4/ 14 1005.8R
S MID LAKE BUOY  0850   43 41   10/ 12/ 14 1002.6R   1/ 3
KENOSHA   LAKESH 0900   47      20/ 13/ 13 1004.1S
$$

TC  - TEMPERATURE IN CELSIUS
VSB - VISIBILITY IN STATUTE MILES
WCI - WIND CHILL INDEX
HX  - HEAT INDEX





USA.gov is the U.S. government's official web portal to all federal, state and local government web resources and services.